Stündliche Wetter Cayacoa de Boca Chica

Heute, 24 Januar, Sonntag

Zeit Temperatur Niederschläge Wind Luftdruck Luftfeuchtigkeit
00:00 +22°C° 0 mm 3 m/S 759 mmHg 92%
01:00 +22°C° 0 mm 3 m/S 759 mmHg 93%
02:00 +22°C° 0 mm 3 m/S 758 mmHg 93%
03:00 +21°C° 0 mm 3 m/S 758 mmHg 93%
04:00 +21°C° 0 mm 3 m/S 758 mmHg 94%
05:00 +21°C° 0 mm 3 m/S 759 mmHg 93%
06:00 +22°C° 0 mm 3 m/S 759 mmHg 93%
07:00 +22°C° 0 mm 3 m/S 759 mmHg 92%
08:00 +25°C° 0.1 mm 3 m/S 760 mmHg 84%
09:00 +26°C° 0.1 mm 3 m/S 760 mmHg 76%
10:00 +28°C° 0.1 mm 4 m/S 760 mmHg 69%
11:00 +29°C° 0 mm 3 m/S 759 mmHg 65%
12:00 +30°C° 0 mm 3 m/S 759 mmHg 61%
13:00 +31°C° 0 mm 3 m/S 758 mmHg 56%
14:00 +30°C° 0 mm 3 m/S 758 mmHg 59%
15:00 +30°C° 0 mm 3 m/S 757 mmHg 62%
16:00 +29°C° 0 mm 3 m/S 757 mmHg 64%
17:00 +28°C° 0 mm 4 m/S 757 mmHg 70%
18:00 +26°C° 0 mm 4 m/S 758 mmHg 76%
19:00 +23°C° 0 mm 4 m/S 758 mmHg 82%
20:00 +23°C° 0 mm 4 m/S 759 mmHg 84%
21:00 +22°C° 0 mm 3 m/S 759 mmHg 87%
22:00 +22°C° 0 mm 3 m/S 759 mmHg 89%
23:00 +22°C° 0 mm 3 m/S 759 mmHg 89%

Morgen, 25 Januar, Montag

Zeit Temperatur Niederschläge Wind Luftdruck Luftfeuchtigkeit
00:00 +21°C° 0 mm 3 m/S 758 mmHg 90%
01:00 +21°C° 0 mm 3 m/S 758 mmHg 91%
02:00 +21°C° 0 mm 3 m/S 758 mmHg 91%
03:00 +21°C° 0 mm 3 m/S 758 mmHg 92%
04:00 +21°C° 0 mm 3 m/S 758 mmHg 92%
05:00 +21°C° 0 mm 3 m/S 758 mmHg 92%
06:00 +21°C° 0 mm 3 m/S 759 mmHg 92%
07:00 +22°C° 0 mm 3 m/S 759 mmHg 91%
08:00 +24°C° 0.1 mm 3 m/S 759 mmHg 85%
09:00 +26°C° 0.1 mm 4 m/S 760 mmHg 78%
10:00 +28°C° 0.1 mm 4 m/S 760 mmHg 72%
11:00 +29°C° 0.1 mm 4 m/S 759 mmHg 67%
12:00 +29°C° 0.1 mm 4 m/S 759 mmHg 62%
13:00 +30°C° 0.1 mm 4 m/S 758 mmHg 56%
14:00 +30°C° 0 mm 4 m/S 758 mmHg 58%
15:00 +30°C° 0 mm 4 m/S 758 mmHg 60%
16:00 +29°C° 0 mm 4 m/S 757 mmHg 62%
17:00 +27°C° 0 mm 4 m/S 758 mmHg 69%
18:00 +26°C° 0 mm 4 m/S 758 mmHg 76%
19:00 +23°C° 0 mm 4 m/S 758 mmHg 83%
20:00 +22°C° 0 mm 4 m/S 759 mmHg 85%
21:00 +22°C° 0 mm 4 m/S 759 mmHg 87%
22:00 +21°C° 0 mm 4 m/S 759 mmHg 89%
23:00 +21°C° 0 mm 3 m/S 759 mmHg 90%

übermorgen, 26 Januar, Dienstag

Zeit Temperatur Niederschläge Wind Luftdruck Luftfeuchtigkeit
00:00 +20°C° 0 mm 3 m/S 759 mmHg 90%
01:00 +20°C° 0 mm 3 m/S 759 mmHg 91%
02:00 +20°C° 0 mm 3 m/S 758 mmHg 90%
03:00 +20°C° 0 mm 3 m/S 758 mmHg 89%
04:00 +20°C° 0 mm 3 m/S 758 mmHg 88%
05:00 +20°C° 0 mm 3 m/S 759 mmHg 88%
06:00 +20°C° 0 mm 3 m/S 759 mmHg 88%
07:00 +21°C° 0 mm 3 m/S 760 mmHg 88%
08:00 +24°C° 0 mm 3 m/S 760 mmHg 81%
09:00 +26°C° 0 mm 3 m/S 760 mmHg 74%
10:00 +28°C° 0 mm 2 m/S 760 mmHg 66%
11:00 +29°C° 0 mm 2 m/S 760 mmHg 62%
12:00 +30°C° 0 mm 2 m/S 759 mmHg 58%
13:00 +31°C° 0 mm 3 m/S 759 mmHg 55%
14:00 +30°C° 0 mm 3 m/S 758 mmHg 59%
15:00 +30°C° 0 mm 3 m/S 758 mmHg 63%
16:00 +29°C° 0 mm 3 m/S 758 mmHg 67%
17:00 +28°C° 0 mm 3 m/S 758 mmHg 73%
18:00 +26°C° 0 mm 2 m/S 758 mmHg 80%
19:00 +25°C° 0 mm 2 m/S 759 mmHg 87%
20:00 +24°C° 0 mm 2 m/S 759 mmHg 89%
21:00 +24°C° 0 mm 2 m/S 759 mmHg 90%
22:00 +24°C° 0 mm 3 m/S 759 mmHg 92%
23:00 +22°C° 0 mm 3 m/S 759 mmHg 93%

27 Januar, Mittwoch

Zeit Temperatur Niederschläge Wind Luftdruck Luftfeuchtigkeit
00:00 +22°C° 0 mm 3 m/S 759 mmHg 93%
01:00 +22°C° 0 mm 3 m/S 759 mmHg 94%
02:00 +22°C° 0 mm 3 m/S 759 mmHg 94%
03:00 +21°C° 0 mm 3 m/S 759 mmHg 94%
04:00 +21°C° 0 mm 3 m/S 759 mmHg 94%
05:00 +21°C° 0 mm 3 m/S 759 mmHg 94%
06:00 +21°C° 0 mm 3 m/S 760 mmHg 94%
07:00 +21°C° 0 mm 3 m/S 760 mmHg 94%
08:00 +23°C° 0 mm 4 m/S 760 mmHg 84%
09:00 +26°C° 0 mm 4 m/S 761 mmHg 74%
10:00 +28°C° 0 mm 4 m/S 761 mmHg 64%
11:00 +29°C° 0 mm 4 m/S 760 mmHg 60%
12:00 +30°C° 0 mm 3 m/S 760 mmHg 55%
13:00 +31°C° 0 mm 3 m/S 759 mmHg 50%
14:00 +30°C° 0 mm 3 m/S 759 mmHg 53%
15:00 +30°C° 0 mm 3 m/S 759 mmHg 57%
16:00 +29°C° 0 mm 3 m/S 758 mmHg 60%
17:00 +28°C° 0 mm 3 m/S 759 mmHg 68%
18:00 +26°C° 0 mm 3 m/S 759 mmHg 76%
19:00 +23°C° 0 mm 4 m/S 759 mmHg 83%
20:00 +22°C° 0 mm 3 m/S 759 mmHg 85%
21:00 +22°C° 0 mm 3 m/S 759 mmHg 87%
22:00 +21°C° 0 mm 3 m/S 759 mmHg 88%
23:00 +21°C° 0 mm 3 m/S 759 mmHg 89%

28 Januar, Donnerstag

Zeit Temperatur Niederschläge Wind Luftdruck Luftfeuchtigkeit
00:00 +20°C° 0 mm 3 m/S 759 mmHg 90%
01:00 +20°C° 0 mm 3 m/S 759 mmHg 91%
02:00 +20°C° 0 mm 3 m/S 758 mmHg 91%
03:00 +20°C° 0 mm 3 m/S 758 mmHg 91%
04:00 +19°C° 0 mm 3 m/S 758 mmHg 91%
05:00 +20°C° 0 mm 3 m/S 759 mmHg 90%
06:00 +20°C° 0 mm 3 m/S 759 mmHg 89%
07:00 +20°C° 0 mm 3 m/S 759 mmHg 88%
08:00 +22°C° 0 mm 3 m/S 760 mmHg 80%
09:00 +25°C° 0 mm 3 m/S 760 mmHg 72%
10:00 +28°C° 0 mm 3 m/S 760 mmHg 64%
11:00 +29°C° 0 mm 2 m/S 759 mmHg 59%
12:00 +30°C° 0 mm 2 m/S 759 mmHg 55%
13:00 +31°C° 0 mm 2 m/S 758 mmHg 50%

29 Januar, Freitag

Zeit Temperatur Niederschläge Wind Luftdruck Luftfeuchtigkeit
Mehr zeigen

Wir brauchen deine Erlaubnis

Meteoprog und unser Service Anbieter werden persönliche Daten aufbewahren, so wie Cookies, Geräte Bezeichnung oder ähnliche Technologien von deinem Gerät und Prozess, so wie Persönliche Daten Inhalte und Werbungen, genauso wie social Media und den Verkehr zu analysieren.

  • Aufbewahrung und/oder Zugang zu deiner Geräte Informationen.

    Cookies, Geräte Bezeichnung oder andere Informationen, können aufbewahrt oder Zugang zu deinem Gerät erhalten, für den Grund, der oben angegeben wird.

  • Personalisierte Werbung und Inhalte, Messungen, Einblick in das Publikum und Produkt Entwicklung.

    Werbungen und Inhalte können personalisiert werden, basierend auf ein Profil. Mehr Daten können besser personalisierte Werbungen und Inhalte hinzufügen. Werbung und Inhalte können gezeigt und gemessen werden. Einblicke über das Publikum, welche die Werbung gesehen haben und den Inhalt, können abgeleitet werden. So wie Daten können genutzt werden, um es zu verbessern oder die Benutzer Erfahrung zu verbessern das System und die Software.

Wenn du “Ich stimme zu” klickst, erlaubst du uns, die Cookies zu benutzen die Geräte Bezeichnung, den Web oder ähnliche Technologien zu benutzen. Deine Settings, können in deinem Gerät bei deinem Browser geändert werden.

Für den bestimmten Zweck, berechtigten Interessen beruhen darauf, mehr als auf den Inhalt. Du kannst mehr darüber in unseren Privaten und Cookie Politik lesen.